User: anonymous   Login
Location: Unspecified
(34.0919°N, 0.0000°E)
Time: 05:36:45
(UTC+00:00)
Language:

deb Meteor-2 - Orbit

View from above orbital plane
View from above orbital plane
View from above satellite
View from above satellite

Ground track
Ground track

The orbit is defined by the following mean orbital elements,

1 17755U          26088.08484197 +.00000000 +00000-0 +56014-4 0 00003
2 17755  81.2508 104.1913 0068167 220.3349 202.1253 14.14696078    02
Epoch (UTC): 29 March 2026 02:02:10
Eccentricity: 0.0068167
inclination: 81.2508°
perigee height: 794 km
apogee height: 893 km
right ascension of ascending node: 104.1913°
argument of perigee: 220.3349°
revolutions per day: 14.14696078
mean anomaly at epoch: 202.1253°

The dashed part of the orbit path shows where the satellite is in the earth's shadow,  

DLR